Retour au catalogue

FENGYUN 1C DEB

ActifPO
NORAD 32461·DEBRIS·🇨🇳 China

Lancé May 10, 1999 depuis Taiyuan Satellite Launch Center

Loading…

Prochains Passages (prochaines 24 heures)

TLE

FraisSource: Space-Track

Époque: Sep 14, 2026, 06:57 UTC

1 32461U 99025DBZ 26257.28967731  .00000784  00000-0  72303-3 0  9993
2 32461  98.3229  82.0703 0232836  94.1541  80.0208 13.73498825710768

Suivez FENGYUN 1C DEB en temps réel avec AllMySat

Download on the App Store